Location: *
(42.0175°N, 9.4056°E)
Time: 12:15:03
(UTC+00:00)

Cosmos 2322 Rocket - Pass Details

Date: 25 August 2019
Orbit: 834 x 850 km, 71.0° (Epoch: 17 September)

Event Time Altitude Azimuth Distance (km) Brightness Sun altitude
Rises 22:33:49 0° 329° (NNW) 3,396 6.3 -36.1°
Reaches altitude 10° 22:36:23 10° 322° (NW) 2,455 5.3 -36.2°
Enters shadow 22:39:06 26° 304° (NW) 1,586 3.9 -36.4°
